| time (UTC) | temp F | wind direction | speed MPH | gust MPH | rain 1hr in | rain 24hr in | rain mn in | humidity % | barometer mb |
| 20260906120003 | 73 | 202 | 0.0 | 2.0 | 0.00 | 0.00 | 0.00 | 1010.9 | |
| 20260906115503 | 73 | 203 | 0.0 | 2.0 | 0.00 | 0.00 | 0.00 | 1010.5 | |
| 20260906115002 | 72 | 202 | 2.0 | 2.0 | 0.00 | 0.00 | 0.00 | 1010.9 | |
| 20260906114523 | 72 | 202 | 1.0 | 2.0 | 0.00 | 0.00 | 0.00 | 1010.9 | |
| 20260906114001 | 72 | 202 | 1.0 | 2.0 | 0.00 | 0.00 | 0.00 | 1011.2 | |
| 20260906113502 | 72 | 202 | 1.0 | 2.0 | 0.00 | 0.00 | 0.00 | 1010.9 | |
| 20260906113002 | 72 | 202 | 1.0 | 2.0 | 0.00 | 0.00 | 0.00 | 1010.5 | |
| 20260906112502 | 72 | 202 | 1.0 | 2.0 | 0.00 | 0.00 | 0.00 | 1010.9 | |
| 20260906112002 | 72 | 202 | 1.0 | 2.0 | 0.00 | 0.00 | 0.00 | 1010.9 | |
| 20260906111501 | 72 | 202 | 1.0 | 2.0 | 0.00 | 0.00 | 0.00 | 1011.2 | |
| 20260906111002 | 72 | 202 | 1.0 | 2.0 | 0.00 | 0.00 | 0.00 | 1010.9 | |
| 20260906110501 | 72 | 202 | 1.0 | 2.0 | 0.00 | 0.00 | 0.00 | 1010.9 | |
| 20260906110002 | 72 | 202 | 2.0 | 2.0 | 0.00 | 0.00 | 0.00 | 1010.5 | |
| 20260906105524 | 72 | 202 | 1.0 | 2.0 | 0.00 | 0.00 | 0.00 | 1010.5 | |
| 20260906105001 | 72 | 202 | 1.0 | 3.0 | 0.00 | 0.00 | 0.00 | 1010.5 | |
| 20260906104502 | 72 | 202 | 0.0 | 3.0 | 0.00 | 0.00 | 0.00 | 1010.5 | |
| 20260906104002 | 72 | 214 | 2.0 | 3.0 | 0.00 | 0.00 | 0.00 | 1010.9 | |
| 20260906103502 | 72 | 291 | 3.0 | 3.0 | 0.00 | 0.00 | 0.00 | 1010.5 | |
| 20260906103002 | 72 | 293 | 2.0 | 3.0 | 0.00 | 0.00 | 0.00 | 1010.9 | |
| 20260906102502 | 72 | 314 | 2.0 | 3.0 | 0.00 | 0.00 | 0.00 | 1010.9 | |
| 20260906102002 | 72 | 314 | 2.0 | 3.0 | 0.00 | 0.00 | 0.00 | 1011.2 | |
| 20260906101503 | 72 | 333 | 2.0 | 2.0 | 0.00 | 0.00 | 0.00 | 1010.9 | |
| 20260906101002 | 72 | 338 | 0.0 | 0.0 | 0.00 | 0.00 | 0.00 | 1010.5 | |
| 20260906100523 | 72 | 338 | 0.0 | 2.0 | 0.00 | 0.00 | 0.00 | 1010.5 | |
| 20260906100003 | 72 | 338 | 0.0 | 2.0 | 0.00 | 0.00 | 0.00 | 1010.9 | |
| 20260906095523 | 72 | 338 | 0.0 | 1.0 | 0.00 | 0.00 | 0.00 | 1010.5 | |
| 20260906095002 | 72 | 23 | 0.0 | 2.0 | 0.00 | 0.00 | 0.00 | 1010.2 | |
| 20260906094502 | 72 | 158 | 1.0 | 2.0 | 0.00 | 0.00 | 0.00 | 1010.2 | |
| 20260906094001 | 72 | 184 | 1.0 | 2.0 | 0.00 | 0.00 | 0.00 | 1010.9 | |
| 20260906093503 | 72 | 210 | 1.0 | 2.0 | 0.00 | 0.00 | 0.00 | 1010.5 | |
| 20260906093002 | 72 | 224 | 2.0 | 2.0 | 0.00 | 0.00 | 0.00 | 1010.5 | |
| 20260906092502 | 72 | 243 | 1.0 | 2.0 | 0.00 | 0.00 | 0.00 | 1010.5 | |
| 20260906092002 | 72 | 247 | 1.0 | 2.0 | 0.00 | 0.00 | 0.00 | 1010.2 | |
| 20260906091523 | 72 | 247 | 0.0 | 1.0 | 0.00 | 0.00 | 0.00 | 1010.5 | |
| 20260906091002 | 72 | 224 | 1.0 | 2.0 | 0.00 | 0.00 | 0.00 | 1010.2 | |
| 20260906090502 | 72 | 269 | 1.0 | 2.0 | 0.00 | 0.00 | 0.00 | 1010.2 | |
| 20260906090004 | 72 | 269 | 1.0 | 1.0 | 0.00 | 0.00 | 0.00 | 1010.2 | |
| 20260906085501 | 72 | 269 | 1.0 | 1.0 | 0.00 | 0.00 | 0.00 | 1010.2 | |
| 20260906085002 | 72 | 269 | 0.0 | 2.0 | 0.00 | 0.00 | 0.00 | 1010.2 | |
| 20260906084504 | 72 | 269 | 0.0 | 2.0 | 0.00 | 0.00 | 0.00 | 1010.2 | |
| 20260906084023 | 72 | 269 | 1.0 | 2.0 | 0.00 | 0.00 | 0.00 | 1010.2 | |
| 20260906083502 | 72 | 269 | 1.0 | 2.0 | 0.00 | 0.00 | 0.00 | 1010.5 | |
| 20260906083002 | 72 | 255 | 1.0 | 2.0 | 0.00 | 0.00 | 0.00 | 1010.2 | |
| 20260906082502 | 72 | 269 | 2.0 | 2.0 | 0.00 | 0.00 | 0.00 | 1010.2 | |
| 20260906082002 | 72 | 247 | 1.0 | 2.0 | 0.00 | 0.00 | 0.00 | 1010.9 | |
| 20260906081502 | 72 | 248 | 0.0 | 2.0 | 0.00 | 0.00 | 0.00 | 1010.9 | |
| 20260906081003 | 72 | 270 | 1.0 | 2.0 | 0.00 | 0.00 | 0.00 | 1010.9 | |
| 20260906080502 | 72 | 239 | 1.0 | 2.0 | 0.00 | 0.00 | 0.00 | 1010.9 | |
| 20260906080002 | 72 | 273 | 1.0 | 2.0 | 0.00 | 0.00 | 0.00 | 1010.9 | |
| 20260906075502 | 73 | 264 | 1.0 | 2.0 | 0.00 | 0.00 | 0.00 | 1010.5 | |
| 20260906075001 | 73 | 273 | 1.0 | 2.0 | 0.00 | 0.00 | 0.00 | 1010.2 | |
| 20260906074523 | 73 | 293 | 0.0 | 0.0 | 0.00 | 0.00 | 0.00 | 1011.2 | |
| 20260906074002 | 73 | 293 | 0.0 | 0.0 | 0.00 | 0.00 | 0.00 | 1010.9 | |
| 20260906073502 | 73 | 270 | 0.0 | 0.0 | 0.00 | 0.00 | 0.00 | 1011.2 | |
| 20260906073002 | 73 | 270 | 0.0 | 0.0 | 0.00 | 0.00 | 0.00 | 1010.5 | |
| 20260906072524 | 73 | 270 | 0.0 | 0.0 | 0.00 | 0.00 | 0.00 | 1010.5 | |
| 20260906072003 | 73 | 248 | 0.0 | 0.0 | 0.00 | 0.00 | 0.00 | 1010.9 | |
| 20260906071503 | 73 | 248 | 0.0 | 2.0 | 0.00 | 0.00 | 0.00 | 1010.5 | |
| 20260906071002 | 73 | 314 | 1.0 | 2.0 | 0.00 | 0.00 | 0.00 | 1011.2 | |
| 20260906070523 | 73 | 327 | 1.0 | 2.0 | 0.00 | 0.00 | 0.00 | 1011.2 | |
| 20260906070002 | 73 | 315 | 1.0 | 2.0 | 0.00 | 0.00 | 0.00 | 1011.2 | |
| 20260906065503 | 73 | 248 | 0.0 | 2.0 | 0.00 | 0.00 | 0.00 | 1010.9 | |
| 20260906065002 | 73 | 346 | 0.0 | 2.0 | 0.00 | 0.00 | 0.00 | 1010.9 | |
| 20260906064502 | 73 | 324 | 1.0 | 4.0 | 0.00 | 0.00 | 0.00 | 1010.5 | |
| 20260906064001 | 73 | 323 | 1.0 | 4.0 | 0.00 | 0.00 | 0.00 | 1009.9 | |
| 20260906063502 | 73 | 308 | 2.0 | 3.0 | 0.00 | 0.00 | 0.00 | 1010.2 | |
| 20260906063003 | 73 | 329 | 1.0 | 3.0 | 0.00 | 0.00 | 0.00 | 1010.5 | |
| 20260906062503 | 73 | 302 | 1.0 | 3.0 | 0.00 | 0.00 | 0.00 | 1011.2 | |
| 20260906062002 | 73 | 291 | 2.0 | 3.0 | 0.00 | 0.00 | 0.00 | 1011.2 | |
| 20260906061523 | 73 | 283 | 2.0 | 2.0 | 0.00 | 0.00 | 0.00 | 1011.2 | |
| 20260906061003 | 73 | 244 | 1.0 | 2.0 | 0.00 | 0.00 | 0.00 | 1010.9 | |
| 20260906060503 | 73 | 219 | 1.0 | 2.0 | 0.00 | 0.00 | 0.00 | 1010.9 | |
| 20260906060023 | 73 | 285 | 1.0 | 2.0 | 0.00 | 0.00 | 0.00 | 1010.9 | |
| 20260906055502 | 73 | 259 | 1.0 | 5.0 | 0.00 | 0.00 | 0.00 | 1010.5 | |
| 20260906055024 | 73 | 236 | 2.0 | 5.0 | 0.00 | 0.00 | 0.00 | 1010.5 | |
| 20260906054502 | 73 | 228 | 3.0 | 4.0 | 0.00 | 0.00 | 0.00 | 1010.9 | |
| 20260906054002 | 74 | 251 | 3.0 | 5.0 | 0.00 | 0.00 | 0.00 | 1011.2 | |
| 20260906053523 | 74 | 265 | 2.0 | 5.0 | 0.00 | 0.00 | 0.00 | 1011.5 | |
| 20260906053023 | 74 | 273 | 2.0 | 5.0 | 0.00 | 0.00 | 0.00 | 1011.9 | |
| 20260906052502 | 74 | 277 | 3.0 | 5.0 | 0.00 | 0.00 | 0.00 | 1011.9 | |
| 20260906052002 | 74 | 280 | 2.0 | 6.0 | 0.00 | 0.00 | 0.00 | 1011.5 | |
| 20260906051523 | 74 | 283 | 4.0 | 7.0 | 0.00 | 0.00 | 0.00 | 1012.2 | |
| 20260906051003 | 74 | 283 | 4.0 | 7.0 | 0.00 | 0.00 | 0.00 | 1012.2 | |
| 20260906050503 | 74 | 280 | 4.0 | 7.0 | 0.00 | 0.00 | 0.00 | 1011.9 | |
| 20260906050024 | 75 | 287 | 3.0 | 7.0 | 0.00 | 0.00 | 0.00 | 1012.2 | |
| 20260906045502 | 75 | 284 | 4.0 | 7.0 | 0.00 | 0.00 | 0.00 | 1011.5 | |
| 20260906045001 | 75 | 275 | 3.0 | 5.0 | 0.00 | 0.00 | 0.00 | 1011.5 | |
| 20260906044502 | 75 | 285 | 3.0 | 5.0 | 0.00 | 0.00 | 0.00 | 1011.5 | |
| 20260906044002 | 75 | 281 | 2.0 | 6.0 | 0.00 | 0.00 | 0.00 | 1011.9 | |
| 20260906043502 | 75 | 273 | 3.0 | 6.0 | 0.00 | 0.00 | 0.00 | 1011.9 | |
| 20260906043001 | 75 | 281 | 3.0 | 6.0 | 0.00 | 0.00 | 0.00 | 1011.5 | |
| 20260906042502 | 75 | 278 | 3.0 | 6.0 | 0.00 | 0.00 | 0.00 | 1011.9 | |
| 20260906042003 | 75 | 283 | 3.0 | 7.0 | 0.00 | 0.00 | 0.00 | 1011.5 | |
| 20260906041503 | 75 | 284 | 4.0 | 7.0 | 0.00 | 0.00 | 0.00 | 1011.9 | |
| 20260906041002 | 75 | 283 | 3.0 | 7.0 | 0.00 | 0.00 | 0.00 | 1011.5 | |
| 20260906040502 | 75 | 278 | 4.0 | 7.0 | 0.00 | 0.00 | 0.00 | 1011.5 | |
| 20260906040001 | 76 | 284 | 4.0 | 6.0 | 0.00 | 0.00 | 0.00 | 1010.9 | |
| 20260906035503 | 76 | 270 | 2.0 | 5.0 | 0.00 | 0.00 | 0.00 | 1011.5 | |
| 20260906035002 | 76 | 283 | 2.0 | 6.0 | 0.00 | 0.00 | 0.00 | 1011.2 | |
| 20260906034502 | 76 | 271 | 2.0 | 6.0 | 0.00 | 0.00 | 0.00 | 1011.2 | |
| 20260906034001 | 76 | 284 | 3.0 | 5.0 | 0.00 | 0.00 | 0.00 | 1011.2 | |
| 20260906033502 | 76 | 275 | 3.0 | 5.0 | 0.00 | 0.00 | 0.00 | 1011.2 | |
| 20260906033003 | 76 | 297 | 2.0 | 5.0 | 0.00 | 0.00 | 0.00 | 1010.9 | |
| 20260906032503 | 76 | 281 | 2.0 | 7.0 | 0.00 | 0.00 | 0.00 | 1010.9 | |
| 20260906032001 | 76 | 275 | 4.0 | 7.0 | 0.00 | 0.00 | 0.00 | 1010.9 | |
| 20260906031502 | 77 | 301 | 4.0 | 6.0 | 0.00 | 0.00 | 0.00 | 1010.5 | |
| 20260906031001 | 77 | 295 | 4.0 | 6.0 | 0.00 | 0.00 | 0.00 | 1010.5 | |
| 20260906030502 | 77 | 316 | 2.0 | 4.0 | 0.00 | 0.00 | 0.00 | 1010.9 | |
| 20260906030002 | 77 | 284 | 1.0 | 5.0 | 0.00 | 0.00 | 0.00 | 1010.9 | |
| 20260906025503 | 77 | 292 | 3.0 | 5.0 | 0.00 | 0.00 | 0.00 | 1010.9 | |
| 20260906025003 | 78 | 282 | 2.0 | 5.0 | 0.00 | 0.00 | 0.00 | 1010.5 | |
| 20260906024502 | 78 | 300 | 2.0 | 5.0 | 0.00 | 0.00 | 0.00 | 1010.9 | |
| 20260906024003 | 78 | 290 | 3.0 | 5.0 | 0.00 | 0.00 | 0.00 | 1010.9 | |
| 20260906023503 | 78 | 295 | 3.0 | 6.0 | 0.00 | 0.00 | 0.00 | 1010.5 | |
| 20260906023002 | 78 | 295 | 3.0 | 6.0 | 0.00 | 0.00 | 0.00 | 1010.5 | |
| 20260906022523 | 78 | 301 | 3.0 | 7.0 | 0.00 | 0.00 | 0.00 | 1010.5 | |
| 20260906022023 | 79 | 282 | 4.0 | 8.0 | 0.00 | 0.00 | 0.00 | 1010.9 | |
| 20260906021502 | 79 | 284 | 4.0 | 8.0 | 0.00 | 0.00 | 0.00 | 1010.5 | |
| 20260906021024 | 79 | 272 | 3.0 | 8.0 | 0.00 | 0.00 | 0.00 | 1011.2 | |
| 20260906020503 | 80 | 280 | 4.0 | 8.0 | 0.00 | 0.00 | 0.00 | 1010.9 | |
| 20260906020002 | 80 | 291 | 5.0 | 8.0 | 0.00 | 0.00 | 0.00 | 1010.9 | |
| 20260906015503 | 81 | 284 | 4.0 | 8.0 | 0.00 | 0.00 | 0.00 | 1010.9 | |
| 20260906015002 | 82 | 252 | 4.0 | 7.0 | 0.00 | 0.00 | 0.00 | 1011.2 | |
| 20260906014502 | 82 | 197 | 4.0 | 6.0 | 0.00 | 0.00 | 0.00 | 1011.2 | |
| 20260906014002 | 83 | 209 | 3.0 | 6.0 | 0.00 | 0.00 | 0.00 | 1011.2 | |
| 20260906013003 | 84 | 145 | 2.0 | 7.0 | 0.00 | 0.00 | 0.00 | 1011.2 | |
| 20260906012501 | 85 | 174 | 2.0 | 9.0 | 0.00 | 0.00 | 0.00 | 1011.2 | |
| 20260906012003 | 86 | 147 | 3.0 | 9.0 | 0.00 | 0.00 | 0.00 | 1010.9 | |
| 20260906011502 | 86 | 169 | 5.0 | 6.0 | 0.00 | 0.00 | 0.00 | 1010.9 | |
| 20260906011002 | 86 | 192 | 3.0 | 6.0 | 0.00 | 0.00 | 0.00 | 1011.2 | |
| 20260906010501 | 85 | 183 | 3.0 | 7.0 | 0.00 | 0.00 | 0.00 | 1010.9 | |
| 20260906010003 | 85 | 206 | 4.0 | 7.0 | 0.00 | 0.00 | 0.00 | 1010.5 | |
| 20260906005503 | 84 | 184 | 4.0 | 8.0 | 0.00 | 0.00 | 0.00 | 1010.2 | |
| 20260906005002 | 84 | 194 | 4.0 | 8.0 | 0.00 | 0.00 | 0.00 | 1010.2 | |
| 20260906004502 | 84 | 185 | 5.0 | 8.0 | 0.00 | 0.00 | 0.00 | 1010.5 | |
| 20260906004002 | 84 | 213 | 4.0 | 8.0 | 0.00 | 0.00 | 0.00 | 1010.9 | |
| 20260906003503 | 84 | 203 | 4.0 | 9.0 | 0.00 | 0.00 | 0.00 | 1011.2 | |
| 20260906003002 | 84 | 212 | 5.0 | 9.0 | 0.00 | 0.00 | 0.00 | 1010.9 | |
| 20260906002502 | 84 | 211 | 5.0 | 10.0 | 0.00 | 0.00 | 0.00 | 1010.9 | |
| 20260906002002 | 84 | 218 | 4.0 | 10.0 | 0.00 | 0.00 | 0.00 | 1010.5 | |
| 20260906001502 | 85 | 188 | 4.0 | 8.0 | 0.00 | 0.00 | 0.00 | 1010.5 | |
| 20260906001002 | 85 | 169 | 5.0 | 10.0 | 0.00 | 0.00 | 0.00 | 1010.2 | |
| 20260906000523 | 84 | 212 | 6.0 | 10.0 | 0.00 | 0.00 | 0.00 | 1010.5 | |
| 20260906000002 | 84 | 231 | 5.0 | 12.0 | 0.00 | 0.00 | 0.00 | 1010.2 | |
| 20260905235502 | 85 | 219 | 6.0 | 12.0 | 0.00 | 0.00 | 0.00 | 1010.5 | |
| 20260905235001 | 85 | 214 | 5.0 | 10.0 | 0.00 | 0.00 | 0.00 | 1010.5 | |
| 20260905234503 | 86 | 223 | 6.0 | 10.0 | 0.00 | 0.00 | 0.00 | 1010.9 | |
| 20260905234024 | 86 | 208 | 5.0 | 10.0 | 0.00 | 0.00 | 0.00 | 1010.2 | |
| 20260905233502 | 87 | 233 | 6.0 | 10.0 | 0.00 | 0.00 | 0.00 | 1010.9 | |
| 20260905233003 | 87 | 221 | 5.0 | 12.0 | 0.00 | 0.00 | 0.00 | 1010.5 | |
| 20260905232502 | 88 | 233 | 8.0 | 12.0 | 0.00 | 0.00 | 0.00 | 1010.9 | |
| 20260905232002 | 89 | 208 | 4.0 | 10.0 | 0.00 | 0.00 | 0.00 | 1011.2 | |
| 20260905231501 | 90 | 218 | 5.0 | 9.0 | 0.00 | 0.00 | 0.00 | 1011.2 | |
| 20260905231002 | 89 | 205 | 5.0 | 10.0 | 0.00 | 0.00 | 0.00 | 1010.5 | |
| 20260905230524 | 89 | 210 | 5.0 | 10.0 | 0.00 | 0.00 | 0.00 | 1010.5 | |
| 20260905230003 | 89 | 204 | 5.0 | 8.0 | 0.00 | 0.00 | 0.00 | 1010.9 | |
| 20260905225502 | 88 | 210 | 5.0 | 8.0 | 0.00 | 0.00 | 0.00 | 1010.9 | |
| 20260905225002 | 88 | 187 | 4.0 | 9.0 | 0.00 | 0.00 | 0.00 | 1010.5 | |
| 20260905224501 | 88 | 175 | 5.0 | 10.0 | 0.00 | 0.00 | 0.00 | 1010.9 | |
| 20260905224002 | 88 | 220 | 6.0 | 11.0 | 0.00 | 0.00 | 0.00 | 1010.5 | |
| 20260905223501 | 89 | 233 | 6.0 | 11.0 | 0.00 | 0.00 | 0.00 | 1010.5 | |
| 20260905223002 | 89 | 230 | 5.0 | 10.0 | 0.00 | 0.00 | 0.00 | 1011.2 | |
| 20260905222502 | 89 | 222 | 6.0 | 10.0 | 0.00 | 0.00 | 0.00 | 1011.5 | |
| 20260905222003 | 89 | 217 | 6.0 | 10.0 | 0.00 | 0.00 | 0.00 | 1011.2 | |
| 20260905221502 | 89 | 205 | 4.0 | 10.0 | 0.00 | 0.00 | 0.00 | 1010.9 | |
| 20260905221002 | 88 | 220 | 5.0 | 12.0 | 0.00 | 0.00 | 0.00 | 1011.2 | |
| 20260905220524 | 89 | 223 | 7.0 | 12.0 | 0.00 | 0.00 | 0.00 | 1011.5 | |
| 20260905220003 | 89 | 208 | 5.0 | 12.0 | 0.00 | 0.00 | 0.00 | 1011.5 | |
| 20260905215503 | 88 | 207 | 5.0 | 12.0 | 0.00 | 0.00 | 0.00 | 1011.5 | |
| 20260905215002 | 87 | 219 | 7.0 | 11.0 | 0.00 | 0.00 | 0.00 | 1012.2 | |
| 20260905214503 | 87 | 237 | 6.0 | 11.0 | 0.00 | 0.00 | 0.00 | 1011.2 | |
| 20260905214004 | 88 | 231 | 4.0 | 10.0 | 0.00 | 0.00 | 0.00 | 1012.2 | |
| 20260905213502 | 88 | 220 | 5.0 | 10.0 | 0.00 | 0.00 | 0.00 | 1011.9 | |
| 20260905213002 | 89 | 208 | 3.0 | 10.0 | 0.00 | 0.00 | 0.00 | 1012.2 | |
| 20260905212525 | 89 | 221 | 5.0 | 10.0 | 0.00 | 0.00 | 0.00 | 1011.5 | |
| 20260905212001 | 88 | 208 | 4.0 | 10.0 | 0.00 | 0.00 | 0.00 | 1011.9 | |
| 20260905211502 | 87 | 214 | 6.0 | 13.0 | 0.00 | 0.00 | 0.00 | 1011.2 | |
| 20260905211003 | 87 | 260 | 6.0 | 13.0 | 0.00 | 0.00 | 0.00 | 1011.9 | |
| 20260905210502 | 88 | 199 | 4.0 | 12.0 | 0.00 | 0.00 | 0.00 | 1011.9 | |
| 20260905210002 | 87 | 202 | 6.0 | 12.0 | 0.00 | 0.00 | 0.00 | 1011.5 | |
| 20260905205504 | 87 | 200 | 5.0 | 11.0 | 0.00 | 0.00 | 0.00 | 1012.6 | |
| 20260905205023 | 87 | 199 | 5.0 | 11.0 | 0.00 | 0.00 | 0.00 | 1011.9 | |
| 20260905204524 | 86 | 188 | 3.0 | 10.0 | 0.00 | 0.00 | 0.00 | 1011.9 | |
| 20260905204003 | 86 | 234 | 5.0 | 10.0 | 0.00 | 0.00 | 0.00 | 1012.2 | |
| 20260905203502 | 86 | 184 | 5.0 | 10.0 | 0.00 | 0.00 | 0.00 | 1011.9 | |
| 20260905203003 | 85 | 238 | 5.0 | 10.0 | 0.00 | 0.00 | 0.00 | 1011.9 | |
| 20260905202503 | 85 | 253 | 4.0 | 12.0 | 0.00 | 0.00 | 0.00 | 1012.2 | |
| 20260905202003 | 85 | 234 | 7.0 | 12.0 | 0.00 | 0.00 | 0.00 | 1012.6 | |
| 20260905201502 | 85 | 186 | 4.0 | 10.0 | 0.00 | 0.00 | 0.00 | 1012.9 | |
| 20260905201002 | 85 | 175 | 5.0 | 11.0 | 0.00 | 0.00 | 0.00 | 1012.9 | |
| 20260905200502 | 85 | 230 | 6.0 | 11.0 | 0.00 | 0.00 | 0.00 | 1012.6 | |
| 20260905200002 | 84 | 239 | 6.0 | 10.0 | 0.00 | 0.00 | 0.00 | 1011.9 | |
| 20260905195524 | 85 | 201 | 3.0 | 10.0 | 0.00 | 0.00 | 0.00 | 1012.2 | |
| 20260905195002 | 85 | 187 | 4.0 | 11.0 | 0.00 | 0.00 | 0.00 | 1012.2 | |
| 20260905194523 | 85 | 212 | 6.0 | 11.0 | 0.00 | 0.00 | 0.00 | 1012.2 | |
| 20260905194003 | 85 | 193 | 4.0 | 12.0 | 0.00 | 0.00 | 0.00 | 1012.6 | |
| 20260905193502 | 85 | 214 | 5.0 | 12.0 | 0.00 | 0.00 | 0.00 | 1012.2 | |
| 20260905193025 | 85 | 191 | 6.0 | 9.0 | 0.00 | 0.00 | 0.00 | 1013.2 | |
| 20260905192503 | 84 | 230 | 5.0 | 9.0 | 0.00 | 0.00 | 0.00 | 1012.9 | |
| 20260905192002 | 83 | 244 | 3.0 | 10.0 | 0.00 | 0.00 | 0.00 | 1012.2 | |
| 20260905191502 | 83 | 174 | 4.0 | 10.0 | 0.00 | 0.00 | 0.00 | 1012.9 | |
| 20260905191002 | 83 | 196 | 3.0 | 10.0 | 0.00 | 0.00 | 0.00 | 1012.6 | |
| 20260905190524 | 82 | 264 | 5.0 | 10.0 | 0.00 | 0.00 | 0.00 | 1012.9 | |
| 20260905190003 | 83 | 346 | 1.0 | 5.0 | 0.00 | 0.00 | 0.00 | 1013.2 | |
| 20260905185503 | 82 | 120 | 2.0 | 9.0 | 0.00 | 0.00 | 0.00 | 1012.9 | |
| 20260905185003 | 82 | 227 | 5.0 | 9.0 | 0.00 | 0.00 | 0.00 | 1013.2 | |
| 20260905184524 | 82 | 181 | 4.0 | 6.0 | 0.00 | 0.00 | 0.00 | 1013.2 | |
| 20260905184002 | 82 | 199 | 3.0 | 5.0 | 0.00 | 0.00 | 0.00 | 1013.2 | |
| 20260905183503 | 81 | 210 | 2.0 | 5.0 | 0.00 | 0.00 | 0.00 | 1013.2 | |
| 20260905183003 | 80 | 337 | 1.0 | 6.0 | 0.00 | 0.00 | 0.00 | 1013.2 | |
| 20260905182502 | 81 | 344 | 2.0 | 6.0 | 0.00 | 0.00 | 0.00 | 1013.6 | |
| 20260905182023 | 81 | 52 | 3.0 | 5.0 | 0.00 | 0.00 | 0.00 | 1013.9 | |
| 20260905181503 | 80 | 44 | 2.0 | 6.0 | 0.00 | 0.00 | 0.00 | 1013.6 | |
| 20260905181024 | 80 | 120 | 3.0 | 6.0 | 0.00 | 0.00 | 0.00 | 1013.6 | |
| 20260905180502 | 79 | 205 | 2.0 | 4.0 | 0.00 | 0.00 | 0.00 | 1013.6 | |
| 20260905180004 | 78 | 231 | 1.0 | 4.0 | 0.00 | 0.00 | 0.00 | 1013.9 | |
| 20260905175503 | 78 | 198 | 2.0 | 4.0 | 0.00 | 0.00 | 0.00 | 1013.6 | |
| 20260905175023 | 78 | 220 | 3.0 | 5.0 | 0.00 | 0.00 | 0.00 | 1014.3 | |
| 20260905174502 | 77 | 165 | 4.0 | 5.0 | 0.00 | 0.00 | 0.00 | 1013.6 | |
| 20260905174024 | 77 | 230 | 2.0 | 3.0 | 0.00 | 0.00 | 0.00 | 1013.9 | |
| 20260905173503 | 77 | 111 | 1.0 | 4.0 | 0.00 | 0.00 | 0.00 | 1013.9 | |
| 20260905173002 | 76 | 100 | 3.0 | 5.0 | 0.00 | 0.00 | 0.00 | 1013.6 | |
| 20260905172503 | 76 | 97 | 3.0 | 5.0 | 0.00 | 0.00 | 0.00 | 1013.6 | |
| 20260905172002 | 75 | 114 | 2.0 | 4.0 | 0.00 | 0.00 | 0.00 | 1013.6 | |
| 20260905171502 | 74 | 109 | 3.0 | 4.0 | 0.00 | 0.00 | 0.00 | 1013.9 | |
| 20260905171002 | 74 | 235 | 2.0 | 3.0 | 0.00 | 0.00 | 0.00 | 1013.9 | |
| 20260905170503 | 74 | 69 | 1.0 | 3.0 | 0.00 | 0.00 | 0.00 | 1013.9 | |
| 20260905170002 | 74 | 14 | 2.0 | 5.0 | 0.00 | 0.00 | 0.00 | 1013.6 | |
| 20260905165525 | 73 | 180 | 3.0 | 5.0 | 0.00 | 0.00 | 0.00 | 1013.6 | |
| 20260905165004 | 73 | 161 | 1.0 | 4.0 | 0.00 | 0.00 | 0.00 | 1013.6 | |
| 20260905164502 | 72 | 166 | 2.0 | 4.0 | 0.00 | 0.00 | 0.00 | 1013.6 | |
| 20260905164002 | 72 | 282 | 1.0 | 3.0 | 0.00 | 0.00 | 0.00 | 1013.6 | |
| 20260905163503 | 71 | 341 | 1.0 | 5.0 | 0.00 | 0.00 | 0.00 | 1013.6 | |
| 20260905163002 | 71 | 284 | 2.0 | 5.0 | 0.00 | 0.00 | 0.00 | 1013.6 | |
| 20260905162503 | 70 | 234 | 3.0 | 5.0 | 0.00 | 0.00 | 0.00 | 1013.2 | |
| 20260905162003 | 70 | 283 | 3.0 | 5.0 | 0.00 | 0.00 | 0.00 | 1013.2 | |
| 20260905161504 | 69 | 317 | 3.0 | 5.0 | 0.00 | 0.00 | 0.00 | 1013.9 | |
| 20260905161003 | 69 | 335 | 2.0 | 5.0 | 0.00 | 0.00 | 0.00 | 1013.6 | |
| 20260905160503 | 69 | 235 | 2.0 | 5.0 | 0.00 | 0.00 | 0.00 | 1013.2 | |
| 20260905160002 | 69 | 284 | 2.0 | 5.0 | 0.00 | 0.00 | 0.00 | 1013.6 | |
| 20260905155503 | 68 | 270 | 3.0 | 5.0 | 0.00 | 0.00 | 0.00 | 1013.2 | |
| 20260905155002 | 68 | 285 | 1.0 | 4.0 | 0.00 | 0.00 | 0.00 | 1013.2 | |
| 20260905154524 | 68 | 247 | 2.0 | 4.0 | 0.00 | 0.00 | 0.00 | 1012.6 | |
| 20260905154002 | 68 | 13 | 2.0 | 3.0 | 0.00 | 0.00 | 0.00 | 1012.9 | |
| 20260905153502 | 67 | 287 | 2.0 | 3.0 | 0.00 | 0.00 | 0.00 | 1012.9 | |
| 20260905153002 | 67 | 254 | 2.0 | 3.0 | 0.00 | 0.00 | 0.00 | 1012.6 | |
| 20260905152502 | 67 | 309 | 1.0 | 3.0 | 0.00 | 0.00 | 0.00 | 1012.9 | |
| 20260905152002 | 66 | 4 | 1.0 | 3.0 | 0.00 | 0.00 | 0.00 | 1012.9 | |
| 20260905151503 | 66 | 55 | 1.0 | 3.0 | 0.00 | 0.00 | 0.00 | 1012.6 | |
| 20260905151023 | 66 | 324 | 1.0 | 3.0 | 0.00 | 0.00 | 0.00 | 1012.6 | |
| 20260905150503 | 65 | 296 | 1.0 | 2.0 | 0.00 | 0.00 | 0.00 | 1012.9 | |
| 20260905150003 | 65 | 90 | 1.0 | 2.0 | 0.00 | 0.00 | 0.00 | 1012.9 | |
| 20260905145503 | 65 | 90 | 1.0 | 2.0 | 0.00 | 0.00 | 0.00 | 1013.2 | |
| 20260905145024 | 64 | 90 | 1.0 | 2.0 | 0.00 | 0.00 | 0.00 | 1012.6 | |
| 20260905144524 | 64 | 90 | 1.0 | 3.0 | 0.00 | 0.00 | 0.00 | 1012.6 | |
| 20260905144024 | 64 | 65 | 2.0 | 3.0 | 0.00 | 0.00 | 0.00 | 1012.6 | |
| 20260905143502 | 63 | 45 | 2.0 | 3.0 | 0.00 | 0.00 | 0.00 | 1012.6 | |
| 20260905143003 | 63 | 25 | 1.0 | 2.0 | 0.00 | 0.00 | 0.00 | 1012.6 | |
| 20260905142502 | 63 | 359 | 1.0 | 3.0 | 0.00 | 0.00 | 0.00 | 1012.2 | |
| 20260905142002 | 63 | 30 | 1.0 | 3.0 | 0.00 | 0.00 | 0.00 | 1012.6 | |
| 20260905141502 | 63 | 38 | 2.0 | 3.0 | 0.00 | 0.00 | 0.00 | 1012.2 | |
| 20260905141003 | 62 | 58 | 2.0 | 3.0 | 0.00 | 0.00 | 0.00 | 1012.2 | |
| 20260905140503 | 62 | 31 | 2.0 | 3.0 | 0.00 | 0.00 | 0.00 | 1012.6 | |
| 20260905140002 | 62 | 10 | 2.0 | 3.0 | 0.00 | 0.00 | 0.00 | 1012.9 | |
| 20260905135525 | 62 | 16 | 1.0 | 3.0 | 0.00 | 0.00 | 0.00 | 1012.6 | |
| 20260905135002 | 62 | 29 | 2.0 | 3.0 | 0.00 | 0.00 | 0.00 | 1012.2 | |
| 20260905134502 | 62 | 13 | 1.0 | 2.0 | 0.00 | 0.00 | 0.00 | 1012.2 | |
| 20260905134002 | 62 | 52 | 1.0 | 2.0 | 0.00 | 0.00 | 0.00 | 1011.9 | |
| 20260905133503 | 62 | 4 | 1.0 | 2.0 | 0.00 | 0.00 | 0.00 | 1012.2 | |
| 20260905133002 | 62 | 342 | 1.0 | 2.0 | 0.00 | 0.00 | 0.00 | 1012.2 | |
| 20260905132502 | 63 | 5 | 2.0 | 3.0 | 0.00 | 0.00 | 0.00 | 1012.2 | |
| 20260905132003 | 63 | 34 | 1.0 | 3.0 | 0.00 | 0.00 | 0.00 | 1012.2 | |
| 20260905131502 | 63 | 50 | 2.0 | 3.0 | 0.00 | 0.00 | 0.00 | 1012.2 | |
| 20260905131024 | 63 | 67 | 2.0 | 3.0 | 0.00 | 0.00 | 0.00 | 1012.2 | |
| 20260905130501 | 63 | 72 | 1.0 | 5.0 | 0.00 | 0.00 | 0.00 | 1012.6 | |
| 20260905130023 | 63 | 61 | 2.0 | 5.0 | 0.00 | 0.00 | 0.00 | 1011.9 | |
| 20260905125502 | 63 | 63 | 1.0 | 3.0 | 0.00 | 0.00 | 0.00 | 1011.9 | |
| 20260905125003 | 63 | 71 | 2.0 | 3.0 | 0.00 | 0.00 | 0.00 | 1012.2 | |
| 20260905124502 | 63 | 41 | 1.0 | 3.0 | 0.00 | 0.00 | 0.00 | 1012.2 | |
| 20260905124003 | 63 | 45 | 2.0 | 3.0 | 0.00 | 0.00 | 0.00 | 1012.2 | |
| 20260905123502 | 63 | 44 | 1.0 | 3.0 | 0.00 | 0.00 | 0.00 | 1011.9 | |
| 20260905123024 | 63 | 37 | 1.0 | 2.0 | 0.00 | 0.00 | 0.00 | 1012.6 | |
| 20260905122502 | 64 | 20 | 1.0 | 3.0 | 0.00 | 0.00 | 0.00 | 1012.6 | |
| 20260905122002 | 64 | 50 | 1.0 | 3.0 | 0.00 | 0.00 | 0.00 | 1012.2 | |
| 20260905121502 | 64 | 46 | 1.0 | 3.0 | 0.00 | 0.00 | 0.00 | 1012.6 | |
| 20260905121002 | 64 | 65 | 1.0 | 3.0 | 0.00 | 0.00 | 0.00 | 1012.6 | |
| 20260905120524 | 64 | 64 | 2.0 | 4.0 | 0.00 | 0.00 | 0.00 | 1012.6 |